Overview Statistics Trail Chart Weather Telemetry Raw packets
 

This is the latest recevied weather packets stored in our database for station/object KC9DRE. If no packets are shown the sender has not sent any weather packets the latest 10 day(s).

<< 38 39 40 41 42 43 44 >>
Time Temp. Humidity Pressure Rain* Wind** Luminosity Snow
1777666455 17.78° C 36% 1015.5 hPa 0 mm - 714 W/m² -
1777666151 16.67° C 40% 1015.6 hPa 0 mm - 697 W/m² -
1777665848 17.22° C 38% 1015.4 hPa 0 mm - 713 W/m² -
1777665546 17.22° C 39% 1015.7 hPa 0 mm - 720 W/m² -
1777665241 16.67° C 41% 1015.5 hPa 0 mm - 761 W/m² -
1777664938 16.67° C 44% 1015.6 hPa 0 mm - 825 W/m² -
1777664634 16.11° C 45% 1015.6 hPa 0 mm - 803 W/m² -
1777664336 17.78° C 41% 1015.8 hPa 0 mm - 190 W/m² -
1777664029 17.78° C 41% 1015.7 hPa 0 mm - 842 W/m² -
1777663726 16.67° C 43% 1015.9 hPa 0 mm - 877 W/m² -
1777663423 17.22° C 43% 1015.9 hPa 0 mm - 912 W/m² -
1777663120 17.78° C 41% 1015.6 hPa 0 mm - 851 W/m² -
1777662817 16.67° C 45% 1015.9 hPa 0 mm - 858 W/m² -
1777662514 15° C 43% 1015.7 hPa 0 mm - 817 W/m² -
1777662210 15° C 46% 1015.5 hPa 0 mm - 315 W/m² -
1777661905 15° C 47% 1015.6 hPa 0 mm - 251 W/m² -
1777661602 14.44° C 49% 1015.6 hPa 0 mm - 744 W/m² -
1777661297 14.44° C 48% 1015.7 hPa 0 mm - 251 W/m² -
1777660993 14.44° C 46% 1015.8 hPa 0 mm - 245 W/m² -
1777660689 14.44° C 48% 1015.7 hPa 0 mm - 196 W/m² -
1777660387 15.56° C 48% 1015.8 hPa 0 mm - 227 W/m² -
1777660082 16.67° C 44% 1015.8 hPa 0 mm - 254 W/m² -
1777659779 17.22° C 44% 1015.6 hPa 0 mm - 1068 W/m² -
1777659476 16.11° C 47% 1015.6 hPa 0 mm - 1031 W/m² -
1777659174 16.67° C 44% 1015.7 hPa 0 mm - 314 W/m² -

* Rain latest hour (hover to see other rain measurements)
** Current wind speed in m/s (hover to see current wind gust speed)